QPF
0.03 0.04 0.04 0.04 0.04 0.04 0.03 0.03 0.04 0.03 0.02 0.02 0.01 0.01 0.01 0.03 0.04 0.04 0.04 0.05 0.06 0.07 0.07 0.07 0.05 0.03 0.03 0.03 0.03 0.04 0.06 0.08 0.08 0.07 0.08 0.09 0.09 0.10
0.03 0.03 0.03 0.03 0.02 0.02 0.03 0.03 0.02 0.03 0.03 0.03 0.02 0.01 0.01 0.02 0.04 0.05 0.05 0.06 0.05 0.06 0.06 0.06 0.05 0.04 0.03 0.02 0.02 0.02 0.02 0.03 0.04 0.05 0.07 0.08 0.09 0.09
0.02 0.02 0.02 0.02 0.02 0.02 0.02 0.02 0.02 0.02 0.02 0.02 0.02 0.02 0.02 0.02 0.03 0.05 0.07 0.07 0.05 0.05 0.05 0.05 0.05 0.04 0.04 0.04 0.03 0.03 0.03 0.03 0.04 0.05 0.07 0.09 0.10 0.09
0.01 0.02 0.02 0.02 0.02 0.02 0.02 0.01 0.01 0.01 0.02 0.02 0.01 0.01 0.02 0.02 0.02 0.04 0.06 0.08 0.07 0.05 0.05 0.04 0.05 0.05 0.04 0.04 0.04 0.03 0.04 0.04 0.04 0.05 0.08 0.10 0.09 0.09
0.01 0.01 0.01 0.01 0.01 0.01 0.01 0.01 0.01 0.01 0.01 0.01 0.01 0.01 0.02 0.03 0.03 0.03 0.05 0.07 0.07 0.06 0.05 0.05 0.04 0.04 0.04 0.04 0.04 0.04 0.04 0.05 0.03 0.05 0.08 0.11 0.10 0.09
0.01 0.01 0.01 0.01 0.01 0.01 0.01 0.01 0.01 0.01 0.01 0.01 0.01 0.01 0.02 0.03 0.04 0.05 0.05 0.06 0.07 0.06 0.06 0.06 0.05 0.04 0.04 0.03 0.03 0.03 0.03 0.05 0.04 0.04 0.06 0.09 0.11 0.09
0.02 0.01 0.01 0.01 0.01 0.01 0.02 0.01 0.01 0.01 0.01 0.01 0.01 0.01 0.02 0.03 0.04 0.05 0.05 0.05 0.05 0.05 0.06 0.06 0.06 0.06 0.05 0.03 0.03 0.03 0.03 0.03 0.04 0.05 0.06 0.07 0.09 0.08
0.01 0.01 0.01 0.01 0.01 0.01 0.01 0.01 0.02 0.02 0.02 0.02 0.02 0.02 0.01 0.02 0.02 0.04 0.05 0.05 0.05 0.05 0.05 0.06 0.06 0.07 0.05 0.04 0.03 0.03 0.02 0.03 0.05 0.05 0.05 0.06 0.07 0.07
0.01 0.01 0.01 0.01 0.01 0.01 0.01 0.01 0.01 0.01 0.02 0.02 0.02 0.01 0.01 0.01 0.02 0.03 0.04 0.04 0.04 0.04 0.04 0.05 0.06 0.07 0.06 0.04 0.04 0.03 0.03 0.03 0.05 0.06 0.05 0.06 0.06 0.06
0.01 0.01 0.01 0.01 0.01 0.01 0.01 0.01 0.01 0.01 0.01 0.01 0.01 0.01 0.01 0.01 0.02 0.03 0.04 0.04 0.04 0.04 0.05 0.07 0.07 0.07 0.07 0.06 0.06 0.05 0.03 0.04 0.05 0.05 0.05 0.06 0.07 0.07
0.02 0.01 0.01 0.01 0.01 0.02 0.02 0.02 0.01 0.01 0.01 0.01 0.01 0.01 0.01 0.01 0.02 0.03 0.04 0.05 0.05 0.05 0.05 0.07 0.07 0.08 0.08 0.07 0.07 0.07 0.05 0.04 0.04 0.05 0.05 0.06 0.06 0.06
0.02 0.01 0.02 0.02 0.02 0.03 0.03 0.03 0.03 0.02 0.01 0.01 0.01 0.01 0.01 0.01 0.01 0.02 0.03 0.05 0.05 0.04 0.04 0.07 0.07 0.07 0.09 0.08 0.07 0.08 0.07 0.06 0.05 0.05 0.05 0.05 0.05 0.05
0.02 0.02 0.01 0.02 0.02 0.03 0.03 0.03 0.03 0.03 0.02 0.02 0.01 0.01 0.01 0.01 0.01 0.01 0.01 0.03 0.05 0.04 0.03 0.06 0.08 0.07 0.08 0.08 0.08 0.08 0.06 0.05 0.05 0.06 0.06 0.06 0.05 0.06
0.02 0.02 0.01 0.02 0.02 0.02 0.02 0.02 0.03 0.03 0.03 0.02 0.02 0.02 0.01 0.02 0.02 0.02 0.02 0.02 0.03 0.04 0.04 0.05 0.06 0.07 0.08 0.07 0.07 0.07 0.06 0.04 0.04 0.05 0.05 0.06 0.06 0.06
0.02 0.02 0.02 0.02 0.02 0.02 0.02 0.02 0.02 0.02 0.02 0.02 0.02 0.02 0.02 0.02 0.02 0.02 0.03 0.03 0.04 0.04 0.05 0.06 0.06 0.06 0.07 0.07 0.06 0.05 0.06 0.05 0.04 0.05 0.06 0.07 0.06 0.06
0.02 0.02 0.02 0.03 0.03 0.03 0.02 0.02 0.02 0.02 0.02 0.02 0.02 0.02 0.02 0.02 0.03 0.03 0.03 0.04 0.05 0.06 0.06 0.06 0.06 0.07 0.08 0.06 0.05 0.05 0.05 0.06 0.06 0.06 0.07 0.08 0.07 0.06
0.03 0.03 0.03 0.03 0.03 0.03 0.03 0.03 0.03 0.03 0.02 0.02 0.02 0.03 0.03 0.03 0.03 0.03 0.03 0.04 0.05 0.05 0.05 0.05 0.06 0.07 0.08 0.08 0.07 0.06 0.05 0.05 0.06 0.07 0.09 0.10 0.09 0.07
0.03 0.03 0.03 0.03 0.03 0.03 0.03 0.03 0.03 0.04 0.03 0.03 0.03 0.04 0.04 0.04 0.03 0.03 0.03 0.04 0.05 0.04 0.04 0.04 0.04 0.05 0.06 0.07 0.07 0.07 0.06 0.06 0.06 0.07 0.08 0.09 0.10 0.10
0.03 0.02 0.02 0.02 0.03 0.03 0.03 0.03 0.03 0.03 0.03 0.03 0.03 0.03 0.04 0.04 0.04 0.03 0.03 0.04 0.05 0.05 0.05 0.04 0.05 0.05 0.05 0.05 0.06 0.05 0.05 0.05 0.06 0.08 0.08 0.09 0.10 0.10
0.03 0.03 0.02 0.02 0.02 0.02 0.03 0.03 0.03 0.02 0.03 0.03 0.03 0.03 0.03 0.03 0.03 0.03 0.03 0.03 0.04 0.05 0.05 0.04 0.05 0.05 0.05 0.04 0.05 0.05 0.04 0.04 0.05 0.06 0.08 0.08 0.09 0.08
0.03 0.03 0.02 0.02 0.02 0.02 0.02 0.02 0.02 0.03 0.03 0.03 0.03 0.03 0.03 0.03 0.03 0.03 0.04 0.04 0.05 0.05 0.05 0.04 0.04 0.04 0.05 0.05 0.05 0.05 0.04 0.04 0.04 0.05 0.06 0.07 0.08 0.08
0.03 0.03 0.03 0.03 0.02 0.02 0.02 0.02 0.02 0.02 0.02 0.03 0.03 0.03 0.03 0.03 0.04 0.04 0.04 0.04 0.05 0.05 0.05 0.04 0.04 0.04 0.04 0.04 0.04 0.03 0.03 0.03 0.03 0.04 0.04 0.06 0.08 0.08
0.03 0.03 0.03 0.03 0.03 0.03 0.03 0.02 0.02 0.02 0.02 0.02 0.02 0.02 0.02 0.03 0.03 0.04 0.04 0.04 0.05 0.05 0.05 0.04 0.03 0.03 0.03 0.03 0.03 0.03 0.03 0.03 0.03 0.04 0.04 0.05 0.05 0.05
MSLP
1033.23 1033.56 1033.86 1034.10 1034.26 1034.32 1034.29 1034.17 1034.01 1033.81 1033.59 1033.38 1033.16 1032.92 1032.66 1032.34 1031.97 1031.53 1031.05 1030.53 1030.00 1029.49 1029.04 1028.63 1028.28 1027.98 1027.70 1027.44 1027.17 1026.87 1026.55 1026.20 1025.84 1025.46 1025.08 1024.71 1024.35 1023.98
1033.23 1033.54 1033.84 1034.08 1034.24 1034.31 1034.28 1034.17 1033.99 1033.78 1033.55 1033.32 1033.08 1032.83 1032.56 1032.25 1031.89 1031.47 1031.01 1030.52 1030.02 1029.55 1029.11 1028.72 1028.39 1028.09 1027.83 1027.57 1027.31 1027.02 1026.71 1026.37 1026.02 1025.67 1025.31 1024.97 1024.63 1024.31
1033.04 1033.33 1033.61 1033.85 1034.03 1034.11 1034.09 1034.00 1033.84 1033.63 1033.40 1033.16 1032.91 1032.66 1032.39 1032.09 1031.74 1031.35 1030.92 1030.47 1030.00 1029.56 1029.14 1028.77 1028.45 1028.16 1027.90 1027.65 1027.39 1027.11 1026.81 1026.48 1026.15 1025.81 1025.48 1025.16 1024.86 1024.56
1032.71 1032.97 1033.24 1033.48 1033.66 1033.76 1033.77 1033.70 1033.56 1033.36 1033.14 1032.90 1032.66 1032.41 1032.14 1031.85 1031.53 1031.17 1030.77 1030.35 1029.92 1029.50 1029.11 1028.76 1028.44 1028.16 1027.90 1027.65 1027.39 1027.11 1026.83 1026.52 1026.21 1025.90 1025.59 1025.30 1025.02 1024.75
1032.32 1032.56 1032.80 1033.03 1033.22 1033.33 1033.36 1033.30 1033.18 1033.00 1032.78 1032.54 1032.30 1032.05 1031.80 1031.52 1031.22 1030.89 1030.53 1030.15 1029.76 1029.37 1029.01 1028.66 1028.35 1028.07 1027.80 1027.54 1027.29 1027.02 1026.75 1026.47 1026.18 1025.90 1025.63 1025.37 1025.12 1024.87
1031.95 1032.15 1032.37 1032.59 1032.76 1032.87 1032.91 1032.86 1032.73 1032.55 1032.33 1032.09 1031.85 1031.60 1031.35 1031.09 1030.81 1030.51 1030.19 1029.85 1029.50 1029.14 1028.80 1028.47 1028.16 1027.87 1027.59 1027.33 1027.07 1026.81 1026.56 1026.30 1026.05 1025.80 1025.57 1025.34 1025.12 1024.90
1031.65 1031.82 1032.01 1032.20 1032.35 1032.44 1032.45 1032.39 1032.25 1032.05 1031.82 1031.56 1031.31 1031.05 1030.81 1030.56 1030.31 1030.04 1029.76 1029.46 1029.14 1028.82 1028.49 1028.17 1027.86 1027.56 1027.28 1027.00 1026.74 1026.48 1026.24 1026.01 1025.79 1025.58 1025.39 1025.20 1025.01 1024.82
1031.44 1031.58 1031.73 1031.87 1031.98 1032.03 1032.00 1031.90 1031.73 1031.50 1031.24 1030.97 1030.69 1030.43 1030.19 1029.96 1029.72 1029.49 1029.25 1028.99 1028.71 1028.42 1028.12 1027.81 1027.50 1027.19 1026.89 1026.60 1026.33 1026.07 1025.83 1025.61 1025.42 1025.24 1025.09 1024.94 1024.79 1024.64
1031.30 1031.40 1031.51 1031.60 1031.65 1031.64 1031.56 1031.41 1031.19 1030.93 1030.64 1030.33 1030.05 1029.78 1029.54 1029.32 1029.12 1028.92 1028.72 1028.50 1028.26 1028.00 1027.72 1027.42 1027.11 1026.80 1026.48 1026.18 1025.89 1025.62 1025.37 1025.16 1024.98 1024.83 1024.70 1024.59 1024.48 1024.36
1031.18 1031.24 1031.29 1031.32 1031.30 1031.23 1031.10 1030.90 1030.64 1030.34 1030.02 1029.71 1029.41 1029.15 1028.92 1028.72 1028.54 1028.38 1028.21 1028.04 1027.83 1027.61 1027.35 1027.07 1026.77 1026.45 1026.12 1025.80 1025.49 1025.20 1024.95 1024.73 1024.55 1024.40 1024.29 1024.19 1024.11 1024.01
1031.01 1031.02 1031.02 1030.99 1030.92 1030.80 1030.61 1030.38 1030.09 1029.78 1029.45 1029.13 1028.84 1028.59 1028.38 1028.20 1028.06 1027.93 1027.79 1027.65 1027.49 1027.29 1027.06 1026.80 1026.51 1026.19 1025.86 1025.53 1025.20 1024.89 1024.61 1024.37 1024.17 1024.02 1023.89 1023.80 1023.72 1023.65
1030.74 1030.71 1030.67 1030.60 1030.48 1030.33 1030.12 1029.87 1029.58 1029.27 1028.96 1028.66 1028.39 1028.16 1027.97 1027.82 1027.70 1027.59 1027.49 1027.37 1027.24 1027.07 1026.86 1026.62 1026.35 1026.04 1025.71 1025.37 1025.03 1024.70 1024.40 1024.13 1023.90 1023.71 1023.56 1023.45 1023.35 1023.27
1030.38 1030.32 1030.25 1030.15 1030.02 1029.86 1029.65 1029.41 1029.14 1028.86 1028.58 1028.32 1028.08 1027.88 1027.72 1027.59 1027.48 1027.39 1027.30 1027.20 1027.07 1026.92 1026.73 1026.51 1026.25 1025.96 1025.65 1025.31 1024.96 1024.62 1024.29 1023.98 1023.71 1023.48 1023.28 1023.12 1022.99 1022.88
1029.95 1029.88 1029.80 1029.70 1029.58 1029.43 1029.25 1029.04 1028.81 1028.58 1028.34 1028.12 1027.93 1027.75 1027.61 1027.49 1027.38 1027.29 1027.19 1027.08 1026.95 1026.80 1026.63 1026.42 1026.17 1025.90 1025.60 1025.27 1024.93 1024.57 1024.22 1023.88 1023.56 1023.27 1023.01 1022.79 1022.60 1022.44
1029.51 1029.45 1029.38 1029.30 1029.20 1029.08 1028.94 1028.78 1028.61 1028.42 1028.24 1028.06 1027.89 1027.74 1027.60 1027.47 1027.35 1027.23 1027.10 1026.97 1026.82 1026.66 1026.48 1026.27 1026.04 1025.78 1025.49 1025.18 1024.84 1024.47 1024.10 1023.73 1023.36 1023.01 1022.69 1022.41 1022.15 1021.92
1029.12 1029.08 1029.03 1028.98 1028.92 1028.84 1028.75 1028.63 1028.50 1028.36 1028.22 1028.07 1027.92 1027.77 1027.63 1027.48 1027.32 1027.17 1027.00 1026.82 1026.64 1026.44 1026.24 1026.02 1025.79 1025.54 1025.26 1024.95 1024.62 1024.25 1023.86 1023.46 1023.05 1022.65 1022.26 1021.90 1021.57 1021.27
1028.82 1028.81 1028.80 1028.78 1028.75 1028.71 1028.64 1028.56 1028.46 1028.35 1028.23 1028.09 1027.95 1027.79 1027.62 1027.44 1027.25 1027.04 1026.82 1026.59 1026.36 1026.12 1025.89 1025.65 1025.41 1025.15 1024.87 1024.56 1024.22 1023.85 1023.44 1023.01 1022.57 1022.11 1021.67 1021.24 1020.84 1020.48
1028.62 1028.64 1028.66 1028.66 1028.65 1028.62 1028.57 1028.50 1028.41 1028.30 1028.18 1028.04 1027.89 1027.72 1027.53 1027.31 1027.08 1026.82 1026.56 1026.28 1026.00 1025.72 1025.44 1025.17 1024.90 1024.63 1024.33 1024.01 1023.66 1023.27 1022.85 1022.39 1021.91 1021.41 1020.92 1020.43 1019.98 1019.55
1028.50 1028.54 1028.56 1028.58 1028.57 1028.53 1028.47 1028.38 1028.28 1028.15 1028.02 1027.87 1027.70 1027.51 1027.30 1027.07 1026.80 1026.52 1026.21 1025.90 1025.58 1025.26 1024.95 1024.64 1024.34 1024.03 1023.71 1023.37 1022.99 1022.58 1022.13 1021.64 1021.12 1020.59 1020.05 1019.52 1019.02 1018.56
1028.41 1028.45 1028.47 1028.46 1028.42 1028.36 1028.26 1028.14 1028.00 1027.85 1027.69 1027.53 1027.35 1027.15 1026.94 1026.69 1026.43 1026.13 1025.82 1025.48 1025.14 1024.80 1024.46 1024.12 1023.78 1023.44 1023.09 1022.71 1022.30 1021.85 1021.36 1020.84 1020.28 1019.71 1019.14 1018.58 1018.04 1017.54
1028.29 1028.31 1028.30 1028.26 1028.17 1028.05 1027.90 1027.74 1027.56 1027.37 1027.19 1027.01 1026.83 1026.64 1026.43 1026.21 1025.96 1025.68 1025.38 1025.06 1024.72 1024.36 1024.01 1023.65 1023.28 1022.90 1022.51 1022.09 1021.64 1021.15 1020.62 1020.06 1019.47 1018.86 1018.25 1017.66 1017.09 1016.57
1028.11 1028.09 1028.03 1027.93 1027.78 1027.60 1027.39 1027.17 1026.95 1026.73 1026.53 1026.34 1026.16 1025.99 1025.81 1025.61 1025.40 1025.16 1024.90 1024.60 1024.28 1023.94 1023.58 1023.21 1022.82 1022.42 1021.99 1021.53 1021.04 1020.51 1019.94 1019.34 1018.72 1018.07 1017.43 1016.81 1016.21 1015.66
1027.84 1027.76 1027.64 1027.48 1027.27 1027.02 1026.75 1026.47 1026.20 1025.95 1025.72 1025.53 1025.36 1025.20 1025.06 1024.91 1024.74 1024.54 1024.32 1024.07 1023.78 1023.47 1023.12 1022.76 1022.36 1021.95 1021.50 1021.01 1020.49 1019.93 1019.33 1018.69 1018.03 1017.36 1016.68 1016.03 1015.40 1014.82
Thickness
5420 5420 5418 5417 5416 5416 5416 5416 5417 5423 5431 5434 5434 5435 5435 5437 5439 5442 5446 5449 5452 5456 5459 5462 5465 5469 5472 5475 5478 5482 5486 5490 5494 5498 5501 5505 5510 5515
5407 5406 5405 5404 5403 5402 5402 5402 5402 5404 5411 5418 5417 5419 5420 5422 5425 5428 5431 5435 5438 5441 5444 5447 5450 5453 5456 5459 5463 5466 5470 5474 5479 5483 5487 5491 5497 5501
5394 5393 5392 5391 5390 5389 5388 5388 5388 5389 5394 5401 5402 5403 5405 5408 5411 5414 5417 5421 5424 5427 5430 5433 5436 5439 5442 5444 5447 5450 5454 5458 5463 5468 5472 5477 5482 5488
5381 5380 5379 5378 5377 5376 5375 5374 5374 5375 5378 5383 5387 5388 5390 5393 5396 5399 5403 5406 5409 5413 5416 5419 5423 5425 5428 5430 5432 5435 5438 5443 5447 5452 5458 5464 5469 5473
5368 5368 5367 5365 5365 5363 5362 5362 5362 5363 5364 5367 5371 5373 5376 5378 5381 5385 5389 5392 5396 5399 5403 5406 5409 5412 5414 5416 5418 5420 5424 5429 5434 5438 5442 5448 5454 5459
5357 5356 5355 5354 5353 5352 5351 5350 5350 5350 5351 5353 5356 5359 5362 5364 5366 5370 5376 5379 5383 5386 5390 5393 5396 5398 5400 5403 5406 5408 5411 5414 5419 5424 5429 5435 5439 5445
5345 5345 5344 5343 5343 5342 5342 5341 5340 5339 5340 5341 5344 5346 5348 5350 5352 5355 5360 5366 5370 5373 5377 5381 5383 5387 5388 5390 5392 5395 5398 5402 5406 5411 5416 5422 5426 5431
5334 5334 5332 5332 5331 5331 5331 5330 5329 5329 5329 5329 5332 5333 5335 5336 5338 5341 5345 5351 5358 5362 5363 5368 5371 5375 5377 5379 5382 5385 5388 5391 5395 5399 5404 5409 5414 5419
5323 5322 5321 5321 5320 5319 5318 5318 5317 5317 5318 5318 5319 5321 5322 5324 5326 5329 5332 5336 5342 5347 5348 5356 5360 5363 5367 5370 5372 5375 5377 5380 5384 5388 5393 5398 5402 5407
5311 5310 5310 5309 5308 5308 5308 5307 5306 5306 5306 5307 5308 5310 5311 5312 5313 5316 5319 5324 5330 5333 5334 5341 5347 5351 5356 5360 5363 5365 5367 5370 5373 5377 5382 5387 5391 5395
5300 5300 5299 5298 5298 5299 5298 5298 5298 5297 5297 5297 5298 5299 5300 5302 5303 5304 5307 5310 5317 5322 5323 5327 5334 5338 5345 5350 5353 5355 5358 5360 5363 5367 5372 5375 5380 5384
5290 5289 5289 5288 5288 5288 5287 5286 5286 5287 5287 5287 5287 5288 5289 5290 5291 5292 5294 5297 5303 5308 5312 5313 5318 5321 5331 5339 5342 5344 5347 5350 5353 5356 5360 5364 5368 5372
5279 5279 5278 5278 5278 5277 5277 5275 5276 5276 5276 5276 5277 5277 5278 5279 5280 5282 5283 5285 5290 5295 5299 5300 5304 5308 5313 5323 5329 5332 5335 5338 5342 5345 5349 5352 5356 5361
5268 5268 5268 5268 5268 5267 5266 5265 5265 5265 5264 5264 5265 5266 5267 5268 5269 5271 5273 5276 5279 5284 5287 5288 5293 5297 5301 5307 5315 5320 5323 5326 5330 5335 5338 5341 5345 5350
5257 5257 5258 5258 5257 5255 5254 5253 5253 5252 5252 5252 5253 5254 5255 5256 5257 5260 5263 5266 5269 5273 5276 5279 5283 5287 5290 5295 5302 5307 5311 5316 5319 5323 5327 5331 5335 5340
5246 5246 5246 5245 5244 5243 5242 5241 5240 5240 5240 5241 5242 5242 5243 5245 5247 5249 5252 5255 5259 5264 5266 5269 5273 5276 5280 5285 5290 5295 5299 5303 5309 5312 5315 5320 5325 5330
5235 5234 5233 5232 5232 5231 5230 5229 5228 5228 5228 5229 5230 5231 5233 5235 5236 5238 5241 5244 5247 5252 5256 5259 5262 5266 5270 5274 5279 5284 5288 5293 5298 5301 5304 5310 5316 5320
5224 5222 5221 5220 5219 5218 5218 5217 5217 5216 5216 5217 5218 5219 5221 5223 5225 5228 5231 5234 5237 5241 5244 5247 5251 5256 5261 5265 5268 5273 5278 5283 5287 5291 5295 5300 5307 5312
5212 5210 5209 5208 5207 5206 5205 5205 5205 5205 5205 5206 5207 5209 5210 5213 5215 5218 5221 5224 5227 5230 5234 5237 5240 5244 5249 5255 5259 5262 5267 5273 5277 5282 5286 5291 5297 5303
5199 5197 5196 5196 5195 5194 5194 5194 5195 5195 5195 5196 5197 5199 5200 5203 5206 5209 5212 5214 5218 5221 5225 5228 5231 5234 5238 5243 5248 5253 5256 5262 5268 5273 5278 5283 5288 5294
5186 5185 5185 5184 5184 5184 5184 5184 5184 5185 5186 5186 5188 5190 5192 5194 5197 5200 5203 5207 5210 5213 5217 5220 5223 5225 5229 5232 5237 5244 5249 5253 5259 5264 5270 5275 5280 5286
5174 5174 5174 5174 5174 5174 5174 5174 5174 5176 5177 5178 5180 5182 5184 5186 5189 5192 5195 5199 5202 5205 5208 5211 5214 5217 5220 5225 5229 5234 5240 5246 5251 5257 5262 5267 5271 5278
5164 5164 5164 5164 5164 5164 5165 5165 5166 5167 5169 5170 5172 5174 5177 5179 5182 5185 5188 5191 5194 5197 5200 5203 5207 5210 5213 5217 5221 5226 5232 5237 5243 5249 5255 5260 5266 5271